Temperature
19 17 17 18 18 19 20 19 19 19 20 20 19 19 19 19 19 19 18 18 18 19 19 19 19 19 19 18 18 18 18 18 17 17 17 17 16 16 16 16 16 16 16 16
18 18 19 19 19 19 19 18 18 19 20 20 19 19 19 18 18 19 19 18 18 18 19 19 19 19 18 18 18 18 17 17 17 17 17 17 16 16 16 16 15 15 15 15
19 19 20 20 20 19 19 18 19 19 19 19 19 19 18 18 19 19 18 19 18 18 18 19 18 18 18 18 18 17 17 17 17 17 16 16 16 16 16 15 15 15 15 15
18 19 20 20 20 20 19 20 19 19 19 17 19 18 18 18 17 17 18 18 18 18 18 18 18 18 17 18 17 17 17 17 17 16 16 16 16 16 16 16 15 15 15 15
19 20 20 20 21 21 20 20 19 19 18 18 18 17 17 17 18 17 17 18 18 18 18 18 18 18 17 17 17 17 17 17 16 16 16 16 16 16 15 15 15 15 15 14
20 20 21 21 21 21 20 19 18 16 16 17 18 17 17 16 17 17 17 17 18 18 18 18 18 18 17 17 16 16 16 16 16 16 16 16 16 16 15 15 15 15 14 14
20 20 21 21 21 21 19 18 17 17 16 17 17 17 17 17 17 17 17 17 17 18 18 18 17 17 17 17 17 16 16 16 16 16 16 16 16 15 15 15 15 15 14 14
19 19 21 21 21 20 19 18 17 17 17 16 17 17 17 18 17 18 18 17 17 17 17 17 17 17 17 17 16 16 16 16 16 16 16 15 15 15 15 15 15 14 14 14
18 19 20 21 21 20 19 17 17 16 16 16 16 17 17 17 17 16 17 17 17 17 17 17 17 17 17 17 16 16 16 15 15 15 15 15 15 15 15 15 14 14 14 14
18 18 20 20 21 20 19 16 15 15 16 16 17 17 17 17 17 16 15 16 17 17 17 17 17 17 17 16 16 16 15 15 15 15 15 15 15 15 15 15 14 14 14 14
18 18 19 20 20 20 18 17 15 14 15 16 16 16 17 17 16 16 15 16 17 17 17 17 16 16 16 16 16 15 15 15 15 15 15 15 15 14 14 14 14 14 14 14
17 16 16 18 19 19 19 18 15 16 16 14 15 16 17 16 16 15 16 17 17 17 17 17 16 16 16 16 16 15 15 15 14 14 14 14 14 14 14 14 14 14 13 13
17 15 16 17 18 18 18 17 16 14 14 13 15 16 16 15 15 16 16 16 16 16 16 16 16 16 15 15 15 15 15 15 14 14 14 14 14 14 14 14 14 13 13 13
16 15 16 17 17 17 18 17 16 15 14 14 15 16 16 16 15 15 15 15 15 16 16 16 16 16 15 15 15 15 15 15 14 14 14 14 14 14 14 13 13 13 13 13
15 15 16 16 17 17 17 17 17 16 15 15 15 15 15 15 14 15 15 15 15 15 15 15 15 15 15 15 15 15 15 14 14 14 14 14 14 14 13 13 13 13 13 13
13 15 15 16 17 17 17 17 17 16 16 16 16 15 15 15 15 14 14 14 14 14 15 15 14 14 14 14 15 15 14 14 14 14 14 14 13 13 13 13 13 12 12 12
12 13 14 15 16 17 16 15 16 16 15 15 15 15 14 13 13 13 14 14 14 14 14 14 14 14 14 14 14 14 14 14 14 14 13 13 13 13 13 13 12 12 12 12
12 12 12 13 15 16 15 15 15 15 15 14 14 14 13 13 13 14 14 14 14 14 14 14 14 14 14 14 14 14 13 13 13 13 13 13 12 12 12 12 12 12 12 12
11 12 12 12 14 15 15 15 15 15 14 14 14 13 13 13 13 14 14 14 15 15 15 15 14 14 14 13 13 13 13 13 13 12 12 12 12 12 12 12 12 12 12 12
11 11 12 12 14 14 14 14 14 15 14 14 13 13 12 13 12 13 14 14 14 15 15 14 14 14 14 13 13 13 13 12 12 12 12 12 12 12 12 12 12 12 12 11
11 11 11 12 13 13 13 13 14 14 13 13 13 13 12 12 13 14 14 14 14 14 14 14 14 14 13 13 13 13 12 12 12 12 11 11 12 12 11 11 12 11 11 11
11 11 11 11 12 12 12 13 12 12 12 13 13 13 13 13 13 13 14 14 14 14 14 14 14 13 13 13 13 12 12 12 11 11 11 11 11 11 11 11 11 11 11 11
10 10 10 10 11 11 12 12 12 13 12 13 13 13 13 13 13 13 13 13 13 14 14 13 13 13 13 13 12 12 12 11 11 11 11 11 11 11 11 11 11 11 11 11
10 9 9 10 10 11 11 12 12 12 13 13 13 13 13 13 13 13 13 13 13 13 13 13 13 13 13 12 12 12 12 11 11 11 11 11 11 11 11 11 11 11 11 11
9 9 9 10 10 11 11 12 12 12 12 12 12 13 13 13 12 12 13 13 13 13 13 13 12 12 12 12 12 12 11 11 11 11 11 11 11 10 10 10 10 10 10 11
8 9 9 9 10 9 11 11 12 12 12 12 12 12 12 12 12 12 12 12 12 12 12 12 12 12 12 12 12 11 11 11 11 11 11 11 11 10 10 10 10 10 10 10
Wind_Speed
3 3 5 9 9 7 4 5 7 9 6 2 6 6 7 4 5 5 5 5 5 6 4 4 5 5 5 5 5 5 5 5 5 4 4 4 3 3 2 2 3 5 6 7
3 6 10 6 5 5 6 6 7 8 4 3 4 6 4 4 6 7 8 7 6 4 3 4 4 5 6 6 6 6 6 6 6 5 4 3 3 2 2 1 2 3 5 5
8 7 3 4 4 5 6 7 7 6 4 3 1 5 4 3 2 2 4 4 5 6 7 6 5 5 6 6 6 6 6 6 5 4 4 3 3 2 1 2 2 2 4 5
7 6 3 4 6 6 7 7 7 5 1 4 1 4 6 3 2 3 4 4 5 4 4 6 6 6 6 6 5 5 6 6 6 6 6 6 4 3 3 3 3 3 3 4
7 4 4 6 7 6 6 2 3 2 3 2 1 2 7 2 4 6 5 5 5 5 6 7 7 8 6 5 5 5 5 5 5 5 6 6 4 3 2 2 3 3 2 3
7 4 5 6 3 5 3 4 4 4 3 2 3 3 6 4 6 5 5 5 5 5 5 5 5 4 4 4 5 5 5 4 4 5 5 6 6 5 4 3 3 2 1 2
6 4 3 3 1 1 4 5 3 4 3 5 2 3 7 6 4 5 6 6 5 5 4 4 4 4 5 6 6 6 6 4 4 5 5 5 6 6 6 5 5 4 2 2
2 7 4 2 5 5 4 7 6 4 5 5 2 5 6 4 2 2 3 4 4 4 4 5 6 6 6 6 6 6 6 5 4 5 4 3 4 4 4 4 4 4 4 3
5 7 5 3 2 6 5 4 5 5 2 2 5 5 6 1 1 1 2 3 4 4 4 5 5 5 5 6 6 7 7 5 5 5 4 4 4 5 5 4 4 3 3 3
7 5 6 3 3 2 4 7 5 5 3 4 5 4 4 4 4 2 3 4 4 4 4 4 4 5 5 5 5 5 5 6 5 4 4 4 4 5 4 4 4 4 4 3
4 4 5 2 3 4 3 4 4 4 4 4 4 6 5 6 6 6 6 5 5 5 5 5 4 4 4 4 4 5 4 4 3 3 4 4 4 4 4 4 4 4 4 4
3 4 3 6 5 3 5 6 7 4 4 4 3 7 5 4 4 4 4 4 3 4 4 4 4 4 4 4 4 4 4 4 4 4 3 4 3 3 4 4 4 4 4 4
3 4 1 6 5 2 1 3 4 5 4 4 3 7 3 3 1 1 2 2 2 3 3 4 4 4 4 4 4 4 4 4 4 4 4 3 3 3 4 4 4 4 4 4
4 4 6 8 7 3 2 2 3 5 4 4 7 8 8 4 3 2 1 2 2 3 3 4 4 3 3 4 4 4 3 4 4 4 4 4 4 4 4 4 4 4 4 4
3 3 5 6 5 2 2 3 4 5 6 7 6 7 8 6 5 3 2 3 4 4 3 4 3 3 2 3 3 3 3 3 4 4 4 4 4 3 3 3 3 3 3 4
3 1 1 3 2 2 2 4 4 3 3 4 3 5 4 3 1 1 2 4 4 4 3 3 3 3 3 3 2 2 2 3 4 4 3 3 2 3 3 3 3 3 3 3
0 2 1 3 2 1 2 3 2 1 0 2 4 5 3 2 2 1 2 4 4 3 3 3 3 3 3 3 3 3 2 2 3 3 3 2 2 3 3 3 3 3 3 2
3 3 2 1 1 4 4 1 1 1 1 1 1 1 0 1 1 1 1 3 3 3 2 3 3 3 2 2 2 2 2 3 2 2 1 1 2 2 2 2 3 3 2 3
4 5 3 2 2 3 2 2 0 1 2 1 1 2 2 1 3 3 1 1 3 4 3 3 3 3 3 3 3 3 3 2 2 2 2 2 2 2 2 2 3 3 2 3
3 3 3 2 3 4 3 6 4 1 2 3 1 2 1 2 2 3 3 1 1 1 2 3 3 3 3 3 4 4 3 2 2 2 3 2 2 2 2 3 3 2 2 3
3 3 2 1 2 3 4 7 3 2 3 4 2 2 0 1 4 4 2 0 1 1 2 3 4 3 3 3 4 4 2 3 3 2 2 2 2 2 2 2 2 2 2 2
1 1 1 1 1 4 5 3 1 3 3 3 3 2 1 2 2 1 1 0 1 1 2 3 4 2 2 3 4 4 3 4 2 2 2 2 2 2 2 2 2 1 2 2
1 2 2 3 3 3 3 2 3 2 2 3 3 3 1 1 2 1 1 0 1 1 1 1 3 3 2 3 4 5 4 3 2 2 2 2 2 2 2 2 2 2 2 2
3 2 1 1 3 4 5 5 5 4 3 4 4 3 1 1 1 2 1 1 0 1 1 2 2 2 3 3 3 4 4 3 3 3 3 3 2 2 2 2 3 3 3 4
3 2 1 2 4 5 5 6 6 6 5 5 4 3 2 1 2 2 1 1 1 1 1 2 3 4 4 4 4 3 3 3 3 3 3 3 3 3 3 3 4 4 5 5
1 1 1 3 4 3 7 7 6 5 5 4 4 4 4 2 2 2 2 2 2 2 1 1 2 3 3 4 4 3 3 3 3 3 3 3 3 3 3 3 4 5 6 7
Wind_Direction
101 98 223 221 201 208 218 237 264 270 273 277 261 266 265 219 178 190 200 204 206 214 206 176 166 158 147 144 148 155 150 151 149 154 158 162 171 164 158 171 164 166 168 167
49 255 240 220 195 205 222 250 265 281 283 235 267 279 261 215 199 199 200 208 210 206 200 186 168 163 165 168 167 161 159 159 165 170 169 167 155 152 162 167 154 162 161 163
199 236 207 188 215 218 235 216 235 252 321 340 293 308 289 275 223 199 199 201 202 195 200 198 186 185 181 180 177 175 171 163 164 153 131 119 98 91 126 170 187 190 173 173
229 248 215 228 239 209 256 234 219 233 260 278 204 273 278 261 272 232 225 212 207 203 195 195 189 190 195 195 182 175 170 164 163 155 155 152 158 173 195 185 187 187 179 175
241 219 205 232 237 187 223 221 193 219 196 270 294 216 284 290 262 250 233 222 212 202 193 193 195 194 191 184 175 170 163 159 156 164 166 163 162 167 159 154 169 185 185 185
245 232 209 215 223 177 167 69 52 51 82 269 242 193 277 241 231 244 227 221 211 202 195 194 186 170 166 158 157 154 157 161 164 168 172 176 176 172 162 167 176 183 187 195
302 292 257 197 177 45 105 94 22 352 357 255 248 204 252 254 237 220 217 216 209 196 185 180 175 171 167 164 163 164 163 174 179 174 180 185 181 178 179 179 181 177 185 206
271 291 267 215 193 196 175 148 163 210 232 272 280 233 254 270 268 230 199 182 175 181 180 181 185 179 173 170 168 167 173 183 182 179 185 183 179 178 182 180 176 181 192 204
201 257 277 244 218 153 151 183 172 151 192 267 271 279 300 307 342 76 125 145 175 189 187 183 178 171 168 171 174 174 172 176 181 181 174 178 180 179 183 179 174 182 194 199
177 244 279 269 86 54 140 147 107 129 171 254 282 272 258 267 258 243 202 196 201 190 179 173 172 168 173 174 166 155 166 179 183 177 174 185 188 186 183 174 184 192 200 196
158 193 291 354 179 201 129 114 116 129 164 176 256 270 238 227 230 223 226 212 198 191 189 182 173 165 160 149 147 157 162 163 163 170 174 177 180 180 175 182 198 199 200 199
161 147 250 265 253 213 177 173 151 162 229 190 204 264 280 238 235 218 219 212 200 192 183 165 153 142 142 148 147 158 168 172 174 169 168 175 177 174 181 197 208 202 206 209
141 126 12 335 341 3 145 165 156 139 135 171 197 263 315 358 329 247 200 186 174 176 161 146 143 148 157 158 157 162 169 178 169 154 154 163 180 188 201 210 210 205 207 213
131 148 181 211 232 228 236 220 162 140 168 207 225 255 295 311 294 275 199 153 141 147 150 147 152 162 168 168 165 165 173 177 166 156 160 175 198 208 214 218 213 211 208 211
102 188 224 237 243 209 219 231 198 192 194 198 229 236 268 276 255 237 183 140 133 137 142 155 165 170 166 162 163 168 177 171 161 160 177 199 206 207 206 210 213 210 208 218
59 173 213 279 256 205 270 280 241 223 203 209 247 265 276 304 335 123 148 147 154 163 167 168 167 166 165 169 166 162 176 174 161 168 193 201 189 194 203 210 207 203 215 223
57 135 146 254 282 19 272 279 245 194 233 195 227 254 310 2 4 234 181 160 170 177 173 175 182 186 188 183 168 163 171 158 158 172 189 194 193 203 214 215 208 214 218 213
168 143 156 205 112 231 234 252 153 150 319 313 266 306 306 236 295 300 165 165 172 175 178 182 173 179 171 152 147 140 129 132 139 159 178 192 198 218 221 210 221 228 223 216
170 153 141 148 195 259 306 338 354 188 286 321 309 340 359 18 36 2 349 179 201 197 193 185 175 165 152 149 144 127 121 129 145 173 200 214 204 206 214 230 243 242 225 237
61 104 125 142 179 226 277 313 315 124 281 313 300 301 340 52 19 296 315 339 217 167 156 150 142 127 143 157 139 130 136 150 192 218 228 227 206 200 217 235 246 245 229 237
21 34 97 152 216 257 302 318 357 131 264 315 302 278 205 202 228 263 292 318 178 144 136 140 142 153 172 161 144 144 161 209 228 234 243 241 230 223 226 235 252 242 235 240
104 77 156 139 196 273 329 16 75 254 301 309 298 278 253 263 280 302 327 46 104 92 102 136 145 153 159 155 153 167 205 226 221 207 229 247 253 249 245 216 248 248 228 243
140 198 199 188 216 279 332 313 300 290 301 296 294 293 267 282 302 317 324 51 93 122 126 136 148 156 171 178 173 190 219 213 198 211 235 250 261 270 251 223 232 256 240 242
334 10 93 306 310 324 334 340 339 329 314 303 300 300 316 297 293 314 328 346 10 160 163 153 151 169 201 209 206 212 216 201 194 216 239 246 247 267 272 261 238 238 241 242
302 353 7 303 307 328 339 339 334 337 341 345 343 333 335 330 318 297 301 279 232 208 197 180 184 202 213 209 223 228 214 191 205 225 239 248 247 252 263 264 255 246 245 233
282 208 205 263 284 288 298 312 324 334 333 337 349 348 345 330 293 295 280 262 236 219 205 204 217 219 220 212 224 228 206 192 201 230 243 245 249 257 261 268 286 274 259 255
Height
1487 1493 1496 1493 1492 1492 1494 1497 1499 1491 1483 1485 1486 1484 1480 1477 1478 1479 1480 1481 1481 1482 1484 1485 1486 1487 1488 1490 1492 1493 1495 1497 1499 1501 1503 1505 1507 1509 1511 1513 1514 1516 1518 1520
1491 1492 1484 1483 1486 1490 1493 1497 1496 1488 1481 1483 1485 1483 1478 1476 1475 1476 1477 1478 1479 1481 1482 1483 1484 1485 1486 1487 1489 1491 1493 1495 1497 1499 1502 1504 1506 1508 1509 1511 1513 1515 1517 1519
1489 1483 1479 1482 1485 1488 1490 1493 1491 1489 1484 1482 1485 1486 1480 1475 1474 1475 1476 1476 1477 1478 1479 1480 1481 1482 1484 1485 1487 1489 1491 1493 1495 1498 1500 1502 1504 1506 1507 1509 1511 1514 1515 1517
1483 1477 1477 1480 1482 1483 1489 1480 1482 1484 1491 1495 1488 1499 1484 1476 1475 1474 1474 1474 1474 1476 1477 1478 1479 1481 1482 1484 1486 1488 1490 1492 1494 1496 1498 1500 1502 1504 1505 1507 1510 1512 1514 1516
1479 1474 1475 1478 1475 1475 1479 1475 1479 1482 1488 1495 1491 1498 1489 1478 1477 1473 1471 1471 1472 1473 1475 1476 1477 1479 1481 1482 1484 1486 1489 1491 1493 1494 1496 1499 1500 1502 1504 1506 1508 1510 1512 1514
1472 1469 1469 1469 1468 1469 1472 1477 1482 1489 1495 1502 1492 1497 1492 1480 1473 1469 1468 1469 1470 1471 1473 1474 1476 1478 1479 1481 1483 1485 1487 1489 1491 1493 1495 1497 1499 1501 1503 1504 1506 1508 1510 1512
1476 1469 1466 1465 1469 1470 1474 1488 1504 1505 1510 1504 1490 1492 1488 1470 1466 1466 1466 1466 1468 1469 1471 1472 1474 1475 1477 1479 1481 1483 1485 1487 1490 1492 1493 1495 1497 1499 1501 1503 1505 1506 1508 1510
1485 1482 1466 1464 1466 1472 1475 1483 1502 1510 1511 1503 1491 1491 1478 1465 1463 1463 1463 1464 1466 1468 1469 1470 1472 1473 1475 1477 1479 1481 1483 1485 1488 1489 1491 1493 1495 1498 1499 1501 1503 1505 1506 1508
1484 1481 1463 1461 1461 1465 1475 1482 1481 1496 1499 1503 1496 1484 1472 1463 1463 1462 1462 1463 1464 1466 1467 1469 1471 1472 1474 1476 1478 1480 1482 1484 1486 1488 1490 1492 1494 1496 1497 1499 1501 1503 1505 1506
1472 1479 1466 1461 1461 1463 1467 1475 1488 1497 1505 1507 1495 1488 1481 1468 1465 1463 1462 1462 1463 1465 1466 1468 1469 1471 1474 1475 1477 1479 1481 1483 1485 1487 1489 1491 1493 1494 1496 1498 1499 1501 1502 1504
1468 1477 1472 1466 1466 1469 1472 1477 1484 1494 1496 1503 1503 1492 1467 1464 1462 1462 1461 1461 1462 1464 1465 1467 1468 1470 1473 1475 1476 1478 1480 1482 1484 1486 1488 1489 1491 1493 1494 1496 1497 1499 1500 1502
1468 1476 1480 1471 1462 1460 1464 1470 1480 1490 1493 1496 1498 1489 1460 1459 1458 1459 1459 1460 1461 1463 1464 1466 1468 1470 1472 1473 1475 1477 1479 1481 1483 1485 1486 1488 1490 1491 1492 1494 1495 1497 1498 1499
1467 1477 1486 1480 1474 1466 1466 1468 1472 1480 1489 1496 1497 1484 1459 1458 1458 1458 1458 1459 1460 1462 1464 1466 1467 1469 1471 1472 1474 1476 1478 1480 1482 1483 1485 1486 1488 1489 1490 1491 1493 1494 1496 1497
1462 1474 1480 1483 1477 1470 1469 1468 1470 1477 1487 1489 1486 1476 1463 1460 1459 1458 1458 1459 1460 1462 1463 1465 1466 1468 1470 1472 1473 1475 1477 1479 1481 1482 1484 1485 1486 1487 1488 1489 1491 1492 1493 1494
1463 1472 1470 1468 1464 1465 1465 1466 1467 1470 1472 1477 1473 1471 1464 1459 1458 1457 1457 1458 1460 1461 1462 1464 1466 1468 1469 1471 1472 1474 1476 1478 1479 1481 1482 1483 1484 1485 1486 1487 1488 1489 1490 1491
1466 1470 1469 1468 1463 1463 1466 1464 1464 1464 1465 1467 1467 1466 1459 1458 1457 1457 1457 1457 1458 1460 1462 1463 1465 1467 1468 1470 1471 1473 1474 1476 1478 1479 1480 1481 1482 1483 1484 1485 1485 1486 1487 1488
1469 1471 1474 1474 1466 1464 1471 1466 1464 1463 1463 1464 1466 1464 1459 1458 1457 1457 1456 1457 1458 1459 1461 1462 1464 1466 1467 1469 1471 1472 1473 1474 1476 1477 1478 1479 1480 1480 1481 1482 1483 1483 1484 1484
1469 1472 1477 1476 1471 1477 1469 1461 1461 1462 1463 1462 1461 1460 1458 1458 1457 1457 1456 1456 1457 1459 1460 1462 1463 1465 1467 1468 1470 1471 1472 1473 1474 1475 1476 1477 1477 1478 1479 1480 1480 1481 1481 1482
1464 1469 1476 1479 1477 1472 1465 1461 1461 1463 1464 1461 1461 1459 1458 1457 1456 1456 1456 1456 1457 1458 1459 1461 1462 1464 1465 1467 1468 1469 1471 1472 1473 1474 1474 1475 1475 1476 1476 1477 1478 1478 1478 1479
1465 1466 1474 1477 1476 1477 1470 1461 1459 1461 1465 1461 1460 1459 1458 1457 1460 1458 1456 1456 1456 1457 1459 1460 1462 1463 1464 1466 1467 1468 1469 1470 1471 1472 1473 1473 1474 1474 1474 1474 1475 1475 1476 1476
1473 1474 1476 1478 1477 1473 1466 1461 1459 1468 1468 1461 1459 1458 1457 1457 1458 1457 1455 1455 1456 1457 1458 1459 1461 1462 1464 1465 1466 1467 1468 1469 1470 1471 1471 1472 1472 1472 1472 1472 1473 1473 1472 1472
1476 1478 1478 1479 1480 1477 1465 1463 1466 1466 1461 1460 1459 1458 1456 1456 1456 1455 1455 1455 1455 1456 1457 1459 1459 1461 1463 1464 1465 1466 1467 1468 1469 1469 1469 1469 1470 1470 1470 1470 1470 1470 1469 1469
1475 1476 1475 1476 1477 1469 1466 1465 1464 1462 1460 1459 1458 1457 1456 1455 1455 1454 1454 1454 1454 1455 1456 1457 1458 1460 1461 1463 1463 1464 1465 1466 1467 1467 1467 1467 1468 1468 1467 1467 1467 1466 1466 1465
1474 1473 1474 1473 1470 1467 1466 1464 1462 1461 1460 1459 1458 1457 1455 1454 1453 1453 1453 1453 1454 1454 1455 1456 1457 1458 1459 1460 1461 1462 1463 1464 1464 1464 1465 1465 1465 1465 1465 1464 1464 1463 1463 1462
1476 1474 1474 1473 1470 1466 1464 1464 1462 1461 1459 1458 1457 1456 1455 1454 1453 1453 1452 1452 1453 1453 1454 1455 1455 1456 1457 1458 1459 1460 1460 1461 1461 1462 1462 1462 1462 1462 1461 1461 1461 1460 1459 1459
1475 1475 1475 1473 1470 1469 1466 1463 1463 1461 1460 1458 1457 1456 1454 1454 1452 1452 1452 1452 1452 1452 1452 1453 1453 1454 1454 1455 1456 1457 1457 1458 1458 1458 1458 1458 1458 1458 1458 1457 1457 1456 1456 1455